Location: Vancouver
(49.2500°N, 123.1330°W)
Time: 10:20:00
(UTC-07:00)

ERS-2 - Visible Passes

Search period start: 26 August 2016 00:00
Search period end: 05 September 2016 00:00
Orbit: 506 x 509 km, 98.5° (Epoch: 25 August)

Date Brightness Start Highest point End Pass type
(mag) Time Alt. Az. Time Alt. Az. Time Alt. Az.
26 Aug 3.9 03:07:09 10° NE 03:10:17 25° E 03:10:23 25° E visible
26 Aug 3.2 04:40:48 10° N 04:44:05 30° WNW 04:45:13 25° W visible
27 Aug 4.6 02:50:25 10° NE 02:52:50 16° E 02:52:50 16° E visible
27 Aug 2.6 04:23:17 10° N 04:26:53 45° WNW 04:27:39 39° WSW visible
28 Aug 5.1 02:34:31 10° ENE 02:35:15 11° E 02:35:15 11° E visible
28 Aug 2.0 04:05:53 10° N 04:09:37 73° WNW 04:10:05 63° SW visible
29 Aug 2.2 03:48:35 10° NNE 03:52:19 70° ESE 03:52:30 68° SE visible
29 Aug 4.3 05:23:52 10° NNW 05:25:35 13° WNW 05:27:19 10° W visible
30 Aug 3.0 03:31:23 10° NNE 03:34:55 43° E 03:34:55 43° E visible
30 Aug 3.9 05:05:50 10° NNW 05:08:28 19° WNW 05:09:45 16° W visible
31 Aug 3.9 03:14:19 10° NE 03:17:20 27° E 03:17:20 27° E visible
31 Aug 3.3 04:48:07 10° N 04:51:18 27° WNW 04:52:10 24° W visible
01 Sep 4.5 02:57:28 10° NE 02:59:45 18° E 02:59:45 18° E visible
01 Sep 2.7 04:30:34 10° N 04:34:05 41° WNW 04:34:35 38° W visible
02 Sep 5.1 02:41:10 10° ENE 02:42:10 12° E 02:42:10 12° E visible
02 Sep 2.1 04:13:06 10° N 04:16:49 65° WNW 04:16:59 64° W visible
03 Sep 2.2 03:55:46 10° NNE 03:59:24 78° E 03:59:24 78° E visible
03 Sep 4.4 05:31:21 10° NW 05:32:43 12° WNW 05:34:06 10° W visible
04 Sep 3.0 03:38:30 10° NNE 03:41:48 46° E 03:41:48 46° E visible
04 Sep 3.9 05:13:08 10° NNW 05:15:36 17° WNW 05:16:37 15° W visible
